Location: Ca��n la Puerta
(32.5440°N, 116.6804°W)
Time: 00:16:59
(UTC+00:00)

Nadezhda 2 Rocket - Pass Details

Date: 15 June 2021
Orbit: 949 x 1010 km, 83.0° (Epoch: 02 August)

Event Time Altitude Azimuth Distance (km) Brightness Sun altitude
Rises 12:01:44 0° 186° (S) 3,620 7.1 -7.5°
Reaches altitude 10° 12:04:13 10° 186° (S) 2,672 6.4 -7.1°
Maximum altitude 12:10:20 85° 275° (W) 957 4.5 -6.0°
Drops below altitude 10° 12:16:27 10° 5° (N) 2,676 7.4 -4.9°
Sets 12:18:57 0° 6° (N) 3,627 8.1 -4.5°
